Hourly Data Report for October 18, 2015

All times are specified in Local Standard Time (LST). Add 1 hour to adjust for Daylight Saving Time where and when it is observed.

POND INLET A
NUNAVUT

72°41'22.000" N
77°58'08.000" W
61.60 m
2403206
71095
YIO

Download Data

Hourly Data (October 2015)
Hourly Data Report for October 18, 2015
Temp Definition
°C
Dew Point Temp Definition
°C
Rel Hum Definition
%
Wind Dir Definition
10's deg

Wind Spd Definition
km/h
Visibility Definition
km
Stn Press Definition
kPa
Hmdx Definition


Wind Chill Definition


Weather Definition


TIME
00:00 Legend Double Dagger -7.6 -12.0 71 24 22 16.1 99.89   -15 LegendNANA
01:00 Legend Double Dagger -8.3 -11.7 77 21 17 16.1 99.92   -15 LegendNANA
02:00 Legend Double Dagger -8.7 -11.6 80 16 21 16.1 99.93   -16 LegendNANA
03:00 Legend Double Dagger -8.6 -11.3 81 15 22 16.1 99.96   -16 LegendNANA
04:00 Legend Double Dagger -8.5 -11.7 78 16 24 16.1 99.99   -17 Snow
05:00 Legend Double Dagger -8.3 -11.6 77 14 17 16.1 100.02   -15 Snow
06:00 Legend Double Dagger -8.4 -11.9 76 14 15 16.1 100.05   -15 LegendNANA
07:00 Legend Double Dagger -8.2 -12.1 74 13 15 16.1 100.06   -15 LegendNANA
08:00 Legend Double Dagger -8.2 -12.2 73 13 15 16.1 100.08   -15 LegendNANA
09:00 Legend Double Dagger -9.3 -13.3 73 12 13 16.1 100.09   -15 LegendNANA
10:00 Legend Double Dagger -12.2 -15.3 78 14 17 16.1 100.12   -20 LegendNANA
11:00 Legend Double Dagger -9.7 -13.9 72 11 13 16.1 100.14   -16 LegendNANA
12:00 Legend Double Dagger -9.7 -14.0 71 10 13 16.1 100.15   -16 LegendNANA
13:00 Legend Double Dagger -10.9 -14.8 73 14 17 16.1 100.16   -18 LegendNANA
14:00 Legend Double Dagger -10.8 -15.0 72 13 13 16.1 100.18   -17 LegendNANA
15:00 Legend Double Dagger -10.4 -14.2 74 13 11 16.1 100.18   -16 LegendNANA
16:00 Legend Double Dagger -9.9 -13.7 74 15 18 16.1 100.19   -17 LegendNANA
17:00 Legend Double Dagger -9.9 -14.2 71 15 9 16.1 100.21   -15 LegendNANA
18:00 Legend Double Dagger -9.6 -13.8 72 16 13 16.1 100.22   -16 LegendNANA
19:00 Legend Double Dagger -10.2 -13.7 76 14 9 16.1 100.24   -15 LegendNANA
20:00 Legend Double Dagger -9.5 -13.1 75 14 11 16.1 100.24   -15 LegendNANA
21:00 Legend Double Dagger -9.3 -12.7 76 16 13 16.1 100.26   -15 LegendNANA
22:00 Legend Double Dagger -9.9 -13.0 78 15 9 16.1 100.28   -15 LegendNANA
23:00 Legend Double Dagger -9.0 -12.4 77 15 11 16.1 100.27   -14 LegendNANA

Notes on Data Quality.

Legend

  • E = Estimated
  • M = Missing
  • NA = Not Available
  • ‡ = Partner data that is not subject to review by the National Climate Archives
Date modified: